Time,TemperatureF,DewpointF,PressureIn,WindDirection,WindDirectionDegrees,WindSpeedMPH,WindSpeedGustMPH,Humidity,HourlyPrecipIn,Conditions,Clouds,dailyrainin,SolarRadiationWatts/m^2,SoftwareType,DateUTC
2013-05-11 00:03:00,62.5,57.0,29.86,SSW,198,0.0,-999.0,81,-99.99,,,0.01,0,weatherlink.com 1.10,2013-05-11 04:03:00,
2013-05-11 00:18:00,62.2,57.0,29.86,SSW,198,0.0,-999.0,82,-99.99,,,0.01,0,weatherlink.com 1.10,2013-05-11 04:18:00,
2013-05-11 00:33:00,61.8,57.0,29.86,SSW,198,0.0,-999.0,83,-99.99,,,0.01,0,weatherlink.com 1.10,2013-05-11 04:33:00,
2013-05-11 00:48:00,61.8,57.0,29.86,SW,219,0.0,-999.0,84,-99.99,,,0.01,0,weatherlink.com 1.10,2013-05-11 04:48:00,
2013-05-11 01:03:00,61.3,57.0,29.86,SW,219,0.0,-999.0,85,-99.99,,,0.01,0,weatherlink.com 1.10,2013-05-11 05:03:00,
2013-05-11 01:18:00,60.8,57.0,29.86,SW,219,0.0,-999.0,86,-99.99,,,0.01,0,weatherlink.com 1.10,2013-05-11 05:18:00,
2013-05-11 01:33:00,60.5,57.0,29.85,SW,219,0.0,-999.0,87,-99.99,,,0.01,0,weatherlink.com 1.10,2013-05-11 05:33:00,
2013-05-11 01:48:00,60.3,57.0,29.85,SW,219,0.0,-999.0,88,-99.99,,,0.01,0,weatherlink.com 1.10,2013-05-11 05:48:00,
2013-05-11 02:03:00,60.2,57.0,29.84,SW,219,0.0,-999.0,89,-99.99,,,0.00,0,weatherlink.com 1.10,2013-05-11 06:03:00,
2013-05-11 02:18:00,60.1,57.0,29.84,SW,219,0.0,-999.0,90,-99.99,,,0.02,0,weatherlink.com 1.10,2013-05-11 06:18:00,
2013-05-11 02:33:00,59.8,58.0,29.83,SW,219,0.0,-999.0,92,-99.99,,,0.05,0,weatherlink.com 1.10,2013-05-11 06:33:00,
2013-05-11 02:48:00,59.6,58.0,29.82,SW,219,0.0,-999.0,93,-99.99,,,0.07,0,weatherlink.com 1.10,2013-05-11 06:48:00,
2013-05-11 03:03:00,59.4,58.0,29.81,SW,219,0.0,-999.0,94,-99.99,,,0.08,0,weatherlink.com 1.10,2013-05-11 07:03:00,
2013-05-11 03:18:00,59.4,58.0,29.80,SW,219,0.0,-999.0,95,-99.99,,,0.09,0,weatherlink.com 1.10,2013-05-11 07:18:00,
2013-05-11 03:33:00,59.2,58.0,29.80,SSW,210,0.0,-999.0,95,-99.99,,,0.10,0,weatherlink.com 1.10,2013-05-11 07:33:00,
2013-05-11 03:48:00,59.0,58.0,29.79,SSW,210,0.0,-999.0,95,-99.99,,,0.12,0,weatherlink.com 1.10,2013-05-11 07:48:00,
2013-05-11 04:03:00,58.9,58.0,29.79,SSW,209,0.0,-999.0,96,-99.99,,,0.12,0,weatherlink.com 1.10,2013-05-11 08:03:00,
2013-05-11 04:18:00,58.8,58.0,29.78,SSW,209,0.0,-999.0,96,-99.99,,,0.13,0,weatherlink.com 1.10,2013-05-11 08:18:00,
2013-05-11 04:33:00,58.9,58.0,29.78,SSW,209,0.0,-999.0,96,-99.99,,,0.13,0,weatherlink.com 1.10,2013-05-11 08:33:00,
2013-05-11 04:48:00,59.0,58.0,29.78,SSW,209,0.0,-999.0,96,-99.99,,,0.13,0,weatherlink.com 1.10,2013-05-11 08:48:00,
2013-05-11 05:03:00,59.4,59.0,29.79,SSW,213,0.0,-999.0,97,-99.99,,,0.13,0,weatherlink.com 1.10,2013-05-11 09:03:00,
2013-05-11 05:18:00,60.0,59.0,29.79,SSW,207,3.0,-999.0,97,-99.99,,,0.13,0,weatherlink.com 1.10,2013-05-11 09:18:00,
2013-05-11 05:33:00,60.3,60.0,29.79,South,171,1.0,-999.0,97,-99.99,,,0.13,0,weatherlink.com 1.10,2013-05-11 09:33:00,
2013-05-11 05:48:00,60.5,60.0,29.79,SSW,198,2.0,-999.0,97,-99.99,,,0.14,0,weatherlink.com 1.10,2013-05-11 09:48:00,
2013-05-11 06:03:00,60.7,60.0,29.78,South,182,0.0,-999.0,97,-99.99,,,0.14,5,weatherlink.com 1.10,2013-05-11 10:03:00,
2013-05-11 06:18:00,60.9,60.0,29.78,South,188,5.0,-999.0,97,-99.99,,,0.14,11,weatherlink.com 1.10,2013-05-11 10:18:00,
2013-05-11 06:33:00,61.0,60.0,29.77,SSE,161,2.0,-999.0,97,-99.99,,,0.14,16,weatherlink.com 1.10,2013-05-11 10:33:00,
2013-05-11 06:48:00,61.2,60.0,29.77,SSW,207,2.0,-999.0,97,-99.99,,,0.14,23,weatherlink.com 1.10,2013-05-11 10:48:00,
2013-05-11 07:03:00,61.3,61.0,29.76,South,182,0.0,-999.0,97,-99.99,,,0.14,35,weatherlink.com 1.10,2013-05-11 11:03:00,
2013-05-11 07:18:00,61.5,61.0,29.76,South,189,2.0,-999.0,97,-99.99,,,0.14,33,weatherlink.com 1.10,2013-05-11 11:18:00,
2013-05-11 07:33:00,61.8,61.0,29.76,SSW,213,0.0,-999.0,97,-99.99,,,0.14,62,weatherlink.com 1.10,2013-05-11 11:33:00,
2013-05-11 07:48:00,62.2,61.0,29.77,SSW,202,4.0,-999.0,97,-99.99,,,0.14,65,weatherlink.com 1.10,2013-05-11 11:48:00,
2013-05-11 08:03:00,62.5,62.0,29.77,SW,215,0.0,-999.0,97,-99.99,,,0.14,114,weatherlink.com 1.10,2013-05-11 12:03:00,
2013-05-11 08:18:00,62.8,62.0,29.76,SE,142,1.0,-999.0,96,-99.99,,,0.14,118,weatherlink.com 1.10,2013-05-11 12:18:00,
2013-05-11 08:33:00,63.0,62.0,29.77,SSW,197,2.0,-999.0,96,-99.99,,,0.14,37,weatherlink.com 1.10,2013-05-11 12:33:00,
2013-05-11 08:48:00,63.0,62.0,29.77,SSW,196,1.0,-999.0,96,-99.99,,,0.14,47,weatherlink.com 1.10,2013-05-11 12:48:00,
2013-05-11 09:03:00,63.2,62.0,29.76,South,187,5.0,-999.0,95,-99.99,,,0.14,95,weatherlink.com 1.10,2013-05-11 13:03:00,
2013-05-11 09:18:00,63.4,62.0,29.76,SW,221,3.0,-999.0,95,-99.99,,,0.14,74,weatherlink.com 1.10,2013-05-11 13:18:00,
2013-05-11 09:33:00,63.6,62.0,29.76,WSW,255,1.0,-999.0,94,-99.99,,,0.14,93,weatherlink.com 1.10,2013-05-11 13:33:00,
2013-05-11 09:48:00,63.9,62.0,29.75,South,188,5.0,-999.0,94,-99.99,,,0.14,178,weatherlink.com 1.10,2013-05-11 13:48:00,
2013-05-11 10:03:00,64.5,63.0,29.75,South,175,4.0,-999.0,93,-99.99,,,0.14,123,weatherlink.com 1.10,2013-05-11 14:03:00,
2013-05-11 10:18:00,64.8,63.0,29.75,SSW,204,6.0,-999.0,93,-99.99,,,0.14,81,weatherlink.com 1.10,2013-05-11 14:18:00,
2013-05-11 10:33:00,64.9,63.0,29.75,SSW,197,1.0,-999.0,92,-99.99,,,0.14,125,weatherlink.com 1.10,2013-05-11 14:33:00,
2013-05-11 10:48:00,65.5,63.0,29.75,WSW,238,3.0,-999.0,92,-99.99,,,0.14,125,weatherlink.com 1.10,2013-05-11 14:48:00,
2013-05-11 11:03:00,65.7,63.0,29.75,South,184,4.0,-999.0,90,-99.99,,,0.14,65,weatherlink.com 1.10,2013-05-11 15:03:00,
2013-05-11 11:19:00,65.8,63.0,29.74,SW,219,2.0,-999.0,91,-99.99,,,0.14,76,weatherlink.com 1.10,2013-05-11 15:19:00,
2013-05-11 11:34:00,66.0,63.0,29.74,SSW,206,0.0,-999.0,90,-99.99,,,0.14,65,weatherlink.com 1.10,2013-05-11 15:34:00,
2013-05-11 11:49:00,66.2,63.0,29.74,WSW,250,0.0,-999.0,90,-99.99,,,0.14,125,weatherlink.com 1.10,2013-05-11 15:49:00,
2013-05-11 12:04:00,66.4,64.0,29.73,SE,137,4.0,-999.0,90,-99.99,,,0.14,123,weatherlink.com 1.10,2013-05-11 16:04:00,
2013-05-11 12:19:00,66.6,64.0,29.73,SSW,207,4.0,-999.0,90,-99.99,,,0.14,204,weatherlink.com 1.10,2013-05-11 16:19:00,
2013-05-11 12:34:00,66.3,63.0,29.73,South,179,5.0,-999.0,89,-99.99,,,0.14,63,weatherlink.com 1.10,2013-05-11 16:34:00,
2013-05-11 12:49:00,65.7,63.0,29.73,WNW,300,4.0,-999.0,91,-99.99,,,0.14,128,weatherlink.com 1.10,2013-05-11 16:49:00,
2013-05-11 13:04:00,65.5,63.0,29.73,South,187,5.0,-999.0,92,-99.99,,,0.14,220,weatherlink.com 1.10,2013-05-11 17:04:00,
2013-05-11 13:19:00,66.0,64.0,29.72,South,171,6.0,-999.0,92,-99.99,,,0.14,367,weatherlink.com 1.10,2013-05-11 17:19:00,
2013-05-11 13:34:00,66.3,63.0,29.72,SSW,212,4.0,-999.0,90,-99.99,,,0.14,142,weatherlink.com 1.10,2013-05-11 17:34:00,
2013-05-11 13:49:00,66.2,64.0,29.71,SW,214,3.0,-999.0,91,-99.99,,,0.14,202,weatherlink.com 1.10,2013-05-11 17:49:00,
2013-05-11 14:04:00,66.2,64.0,29.71,WSW,241,4.0,-999.0,91,-99.99,,,0.14,297,weatherlink.com 1.10,2013-05-11 18:04:00,
2013-05-11 14:19:00,66.5,63.0,29.70,SSW,205,10.0,-999.0,89,-99.99,,,0.15,148,weatherlink.com 1.10,2013-05-11 18:19:00,
2013-05-11 14:34:00,66.4,63.0,29.70,South,180,0.0,-999.0,89,-99.99,,,0.15,130,weatherlink.com 1.10,2013-05-11 18:34:00,
2013-05-11 14:49:00,66.2,63.0,29.70,South,186,3.0,-999.0,90,-99.99,,,0.15,109,weatherlink.com 1.10,2013-05-11 18:49:00,
2013-05-11 15:04:00,66.2,63.0,29.70,WSW,252,6.0,-999.0,90,-99.99,,,0.15,88,weatherlink.com 1.10,2013-05-11 19:04:00,
2013-05-11 15:19:00,65.7,63.0,29.70,SE,143,4.0,-999.0,91,-99.99,,,0.15,47,weatherlink.com 1.10,2013-05-11 19:19:00,
2013-05-11 15:34:00,64.8,63.0,29.68,SW,224,1.0,-999.0,93,-99.99,,,0.18,47,weatherlink.com 1.10,2013-05-11 19:34:00,
2013-05-11 15:49:00,64.3,63.0,29.69,SW,219,2.0,-999.0,94,-99.99,,,0.20,46,weatherlink.com 1.10,2013-05-11 19:49:00,
2013-05-11 16:04:00,64.1,63.0,29.69,South,187,0.0,-999.0,95,-99.99,,,0.21,28,weatherlink.com 1.10,2013-05-11 20:04:00,
2013-05-11 16:19:00,63.8,62.0,29.69,South,171,0.0,-999.0,95,-99.99,,,0.24,12,weatherlink.com 1.10,2013-05-11 20:19:00,
2013-05-11 16:34:00,63.8,63.0,29.70,SSW,205,2.0,-999.0,96,-99.99,,,0.30,9,weatherlink.com 1.10,2013-05-11 20:34:00,
2013-05-11 16:49:00,63.7,63.0,29.70,SSW,192,1.0,-999.0,96,-99.99,,,0.32,72,weatherlink.com 1.10,2013-05-11 20:49:00,
2013-05-11 17:04:00,63.9,63.0,29.70,SSE,163,0.0,-999.0,96,-99.99,,,0.32,185,weatherlink.com 1.10,2013-05-11 21:04:00,
2013-05-11 17:19:00,64.3,63.0,29.70,South,179,0.0,-999.0,96,-99.99,,,0.32,81,weatherlink.com 1.10,2013-05-11 21:19:00,
2013-05-11 17:34:00,64.4,63.0,29.70,South,169,0.0,-999.0,96,-99.99,,,0.32,172,weatherlink.com 1.10,2013-05-11 21:34:00,
2013-05-11 17:49:00,64.6,64.0,29.70,SSE,163,2.0,-999.0,96,-99.99,,,0.32,244,weatherlink.com 1.10,2013-05-11 21:49:00,
2013-05-11 18:04:00,64.6,64.0,29.70,WSW,240,1.0,-999.0,96,-99.99,,,0.32,62,weatherlink.com 1.10,2013-05-11 22:04:00,
2013-05-11 18:19:00,64.6,64.0,29.70,SSW,200,0.0,-999.0,96,-99.99,,,0.32,139,weatherlink.com 1.10,2013-05-11 22:19:00,
2013-05-11 18:34:00,65.0,64.0,29.69,South,182,4.0,-999.0,96,-99.99,,,0.32,146,weatherlink.com 1.10,2013-05-11 22:34:00,
2013-05-11 18:49:00,65.0,64.0,29.70,SSE,164,0.0,-999.0,95,-99.99,,,0.32,49,weatherlink.com 1.10,2013-05-11 22:49:00,
2013-05-11 19:04:00,64.4,63.0,29.69,South,188,0.0,-999.0,95,-99.99,,,0.32,40,weatherlink.com 1.10,2013-05-11 23:04:00,
2013-05-11 19:19:00,64.0,63.0,29.68,SSW,207,0.0,-999.0,95,-99.99,,,0.32,26,weatherlink.com 1.10,2013-05-11 23:19:00,
2013-05-11 19:34:00,63.8,62.0,29.68,SSW,207,0.0,-999.0,95,-99.99,,,0.32,11,weatherlink.com 1.10,2013-05-11 23:34:00,
2013-05-11 19:49:00,63.6,62.0,29.69,SSW,207,0.0,-999.0,95,-99.99,,,0.32,5,weatherlink.com 1.10,2013-05-11 23:49:00,
2013-05-11 20:04:00,63.3,62.0,29.69,SSW,205,0.0,-999.0,95,-99.99,,,0.32,0,weatherlink.com 1.10,2013-05-12 00:04:00,
2013-05-11 20:19:00,63.2,62.0,29.69,SSW,205,0.0,-999.0,96,-99.99,,,0.32,0,weatherlink.com 1.10,2013-05-12 00:19:00,
2013-05-11 20:34:00,62.9,62.0,29.69,SSW,205,0.0,-999.0,95,-99.99,,,0.32,0,weatherlink.com 1.10,2013-05-12 00:34:00,
2013-05-11 20:49:00,62.8,62.0,29.68,SSW,205,0.0,-999.0,96,-99.99,,,0.32,0,weatherlink.com 1.10,2013-05-12 00:49:00,
2013-05-11 21:04:00,62.7,62.0,29.69,SSW,205,0.0,-999.0,96,-99.99,,,0.32,0,weatherlink.com 1.10,2013-05-12 01:04:00,
2013-05-11 21:19:00,62.7,62.0,29.69,South,182,0.0,-999.0,96,-99.99,,,0.32,0,weatherlink.com 1.10,2013-05-12 01:19:00,
2013-05-11 21:34:00,62.4,61.0,29.68,SSW,200,2.0,-999.0,96,-99.99,,,0.32,0,weatherlink.com 1.10,2013-05-12 01:34:00,
2013-05-11 21:49:00,62.1,61.0,29.69,South,184,0.0,-999.0,96,-99.99,,,0.32,0,weatherlink.com 1.10,2013-05-12 01:49:00,
2013-05-11 22:04:00,61.7,61.0,29.69,WSW,246,0.0,-999.0,96,-99.99,,,0.32,0,weatherlink.com 1.10,2013-05-12 02:04:00,
2013-05-11 22:19:00,61.5,60.0,29.69,SSW,192,1.0,-999.0,96,-99.99,,,0.32,0,weatherlink.com 1.10,2013-05-12 02:19:00,
2013-05-11 22:34:00,61.3,61.0,29.69,SSW,204,2.0,-999.0,97,-99.99,,,0.32,0,weatherlink.com 1.10,2013-05-12 02:34:00,
2013-05-11 22:49:00,61.2,60.0,29.68,SSW,203,5.0,-999.0,97,-99.99,,,0.32,0,weatherlink.com 1.10,2013-05-12 02:49:00,
2013-05-11 23:04:00,61.1,60.0,29.68,South,186,0.0,-999.0,97,-99.99,,,0.32,0,weatherlink.com 1.10,2013-05-12 03:04:00,
2013-05-11 23:19:00,61.1,60.0,29.68,South,184,3.0,-999.0,97,-99.99,,,0.32,0,weatherlink.com 1.10,2013-05-12 03:19:00,
2013-05-11 23:34:00,61.1,60.0,29.67,South,184,0.0,-999.0,97,-99.99,,,0.32,0,weatherlink.com 1.10,2013-05-12 03:34:00,
2013-05-11 23:49:00,61.1,60.0,29.66,South,184,0.0,-999.0,97,-99.99,,,0.32,0,weatherlink.com 1.10,2013-05-12 03:49:00,